Terminal Aerodrome Forecast
Issued by NWS Paducah, KY

Home | Current Version | Previous Version | Text Only | Print | Product List | Glossary On
Versions: 1 2 3 4 5 6 7 8 9 10 11 12 13 14 15 16
302
FTUS43 KPAH 201720
TAFPAH
TAF
KPAH 201720Z 2018/2118 VRB04KT P6SM SCT040 BKN100
     FM210000 VRB02KT P6SM SCT100
     FM211400 20004KT P6SM VCTS SCT030CB=

USA.gov is the U.S. government's official web portal to all federal, state and local government web resources and services.